Location: Ariel
(45.9570°N, 122.5700°W)
Time: 04:28:54
(UTC-07:00)

Tiros 1 - Pass Details

Date: 23 July 2019
Orbit: 630 x 664 km, 48.4° (Epoch: 21 August)

Event Time Altitude Azimuth Distance (km) Brightness Sun altitude
Rises 14:34:32 0° 266° (W) 2,990 10.9 59.5°
Reaches altitude 10° 14:36:54 10° 269° (W) 2,081 10.2 59.3°
Maximum altitude 14:41:41 68° 352° (N) 715 8.2 58.7°
Drops below altitude 10° 14:46:30 10° 76° (ENE) 2,082 9.6 58.2°
Sets 14:48:52 0° 79° (E) 2,993 10.3 57.9°
